2022-098E (53448 NORAD) Tracking and Keplerian Element Data

This shows tracking and keplerian element data for the satellite.

Feedback or suggestion? Click here.




ElementValue
Catalog53448
Name2022-098E
Epoch Orbit1554
Epoch Day325.34790716
Epoch Year2022
RAAN59.8738
Inclination97.5338
Eccentricity0.0009771
Argument of Perigee290.0877
Mean Anonmoly156.27
Mean Motion15.09676411
Decay Rate5.281E-05
L11 53448U 22098E 22325.34790716 .00005281 00000+0 33149-3 0 9994
L22 53448 97.5338 59.8738 0009771 290.0877 156.2700 15.09676411 15544



Live tracking and technical data element details for 2022-098E (NORAD 53448). 2022-098E can be tracked NOW for your location showing map with azimuth and elevation plus other details from your city location.







IsCatalogInMostPopularTable: catalog: 53448, numindb: 5
Update: records affected: 1



GetName: 53448 2022-098E

Hit Count: updated at: Thu, 08 Dec 2022 19:11:26 GMT